Regional Weather Roundup
Issued by NWS

Home | Current Version | Previous Version | Text Only | Print | Product List | Glossary Off
Versions: 1 2 3 4 5 6 7 8 9 10 11 12 13 14 15 16 17 18 19 20 21 22 23 24 25 26 27 28 29 30 31 32 33 34 35 36 37 38 39 40 41 42 43 44 45 46 47 48 49 50

133
ASUS43 KLSX 092257
RWRMO

WEATHER SUMMARY FOR MISSOURI
NATIONAL WEATHER SERVICE SPRINGFIELD MO
500 PM CST FRI DEC 09 2016

NOTE: "FAIR" INDICATES FEW OR NO CLOUDS BELOW 12,000 FEET WITH NO
       SIGNIFICANT WEATHER AND/OR OBSTRUCTIONS TO VISIBILITY.
       CURRENT SKY AND/OR WEATHER CONDITIONS ARE NOT AVAILABLE FOR
       CHILLICOTHE AND FARMINGTON.

MOZ001>031-035>038-043-044-053-054-100000-
...NORTHERN AND WESTERN MISSOURI...

CITY           SKY/WX    TMP DP  RH WIND       PRES   REMARKS
KANSAS CTY INT CLOUDY    27   9  46 SE5       30.52F WCI  22
LEE`S SUMMIT   CLOUDY    27  10  49 SE5       30.54S WCI  22
ST JOSEPH      CLOUDY    26  10  50 SE6       30.54F WCI  19
CHILLICOTHE      N/A     25   6  44 S3        30.57F

$$
MOZ066>068-077>081-088>096-101>105-100000-
...SOUTHWEST MISSOURI...

CITY           SKY/WX    TMP DP  RH WIND       PRES   REMARKS
SPRINGFIELD    CLOUDY    31  11  43 S6        30.49F WCI  25
JOPLIN         CLOUDY    31  12  45 SE6       30.51F WCI  25
BRANSON        MOCLDY    32  10  40 E6        30.51F WCI  26

$$
MOZ032>034-039>042-045>050-055>058-069>072-100000-
...CENTRAL MISSOURI...

CITY           SKY/WX    TMP DP  RH WIND       PRES   REMARKS
COLUMBIA       NOT AVBL
JEFFERSON CITY CLEAR     27  10  49 CALM      30.58S
ROLLA          CLEAR     25   9  50 N3        30.51F
SEDALIA        CLOUDY    26   7  44 NE5       30.56S WCI  20
WARRENSBURG    CLOUDY    28  10  47 CALM      30.56R

$$
MOZ051-052-059>065-100000-
...EAST CENTRAL MISSOURI...

CITY           SKY/WX    TMP DP  RH WIND       PRES   REMARKS
ST LOUIS INTL  PTCLDY    26  12  55 NW6       30.58S WCI  19

$$
MOZ072>076-082>087-097>100-106>115-100000-
...SOUTH CENTRAL AND SOUTHEAST MISSOURI...

CITY           SKY/WX    TMP DP  RH WIND       PRES   REMARKS
CAPE GIRARDEAU CLEAR     29  18  63 CALM      30.57F
POPLAR BLUFF   CLEAR     29  18  63 SE5       30.58S WCI  24
WEST PLAINS    CLEAR     30  11  45 S3        30.52F

$$



USA.gov is the U.S. government's official web portal to all federal, state and local government web resources and services.